Millbury, OH

1:52 PM EST on December 10, 2016 (GMT -0500)
Metcalf

Weather History for KTDZ - June, 2014

Change the Weather History Date:

Wednesday, June 18, 2014

  Actual Average (KTOL) Record (KTOL)
Temperature  
Mean Temperature 80 °F -  
Max Temperature 90 °F 81 °F 98 °F (1994)
Min Temperature 69 °F 57 °F 43 °F (1960)
Cooling Degree Days 14    
Growing Degree Days 30 (Base 50)    
Moisture  
Dew Point 67 °F    
Average Humidity 76    
Maximum Humidity 93    
Minimum Humidity 48    
Precipitation  
Precipitation 0.67 in - - ()
Sea Level Pressure  
Sea Level Pressure 30.00 in    
Wind  
Wind Speed 6 mph (East)    
Max Wind Speed 29 mph    
Max Gust Speed 39 mph    
Visibility 8 miles    
Events Rain    
Averages and records for this station are not official NWS values.
T = Trace of Precipitation, MM = Missing Value Source: NWS Daily Summary

Daily Weather History Graph

Daily Weather History Graph

Search for Another Location

Airport or City:

Trip Planner

Search our weather history database for the weather conditions in past years. The results will help you decide how hot, cold, wet, or windy it might be!

Date:

Astronomy

Jun. 18, 2014 Rise Set
Actual Time 5:59 AM EDT 9:10 PM EDT
Civil Twilight 5:25 AM EDT 9:44 PM EDT
Nautical Twilight 4:41 AM EDT 10:28 PM EDT
Astronomical Twilight 3:49 AM EDT 11:21 PM EDT
Moon 12:34 AM EDT (6/18) 12:26 PM EDT (6/18)
Length of Visible Light 16h 19m
Length of Day
15h 11m
Waning Gibbous, 63% of the Moon is Illuminated
Jun 18
Waning Gibbous
Jun 19
Last Quarter
Jun 27
New
Jul 5
First Quarter
Jul 12
Full

Hourly Weather History & Observations

Time (EDT) Temp. Heat Index Dew Point Humidity Pressure Visibility Wind Dir Wind Speed Gust Speed Precip Events Conditions
12:53 AM 81.0 °F 84.4 °F 70.0 °F 69% 29.96 in 10.0 mi WSW 3.5 mph - N/A   Scattered Clouds
1:53 AM 78.1 °F - 70.0 °F 76% 29.95 in 10.0 mi SW 4.6 mph - N/A   Partly Cloudy
2:53 AM 77.0 °F - 70.0 °F 79% 29.97 in 10.0 mi Calm Calm - N/A   Mostly Cloudy
3:53 AM 75.9 °F - 69.1 °F 79% 29.96 in 10.0 mi Calm Calm - N/A   Scattered Clouds
4:53 AM 75.9 °F - 70.0 °F 82% 29.95 in 10.0 mi ESE 3.5 mph - N/A   Overcast
5:53 AM 75.9 °F - 69.1 °F 79% 29.97 in 10.0 mi Calm Calm - N/A   Mostly Cloudy
6:53 AM 72.0 °F - 64.0 °F 76% 30.02 in 10.0 mi NE 13.8 mph 35.7 mph N/A   Mostly Cloudy
7:14 AM 73.0 °F - 63.0 °F 71% 30.05 in 10.0 mi ENE 8.1 mph - N/A   Mostly Cloudy
7:53 AM 73.0 °F - 63.0 °F 71% 30.04 in 10.0 mi East 8.1 mph - N/A   Mostly Cloudy
8:53 AM 73.0 °F - 64.0 °F 73% 30.05 in 10.0 mi East 9.2 mph - N/A   Mostly Cloudy
9:53 AM 73.9 °F - 64.9 °F 73% 30.04 in 10.0 mi NE 6.9 mph - N/A   Overcast
10:33 AM 75.9 °F - 66.0 °F 71% 30.03 in 10.0 mi NE 6.9 mph - N/A   Overcast
10:46 AM 75.9 °F - 66.0 °F 71% 30.03 in 10.0 mi Variable 5.8 mph - N/A   Overcast
10:53 AM 78.1 °F - 66.0 °F 66% 30.02 in 10.0 mi ENE 4.6 mph - N/A   Overcast
11:19 AM 79.0 °F - 66.0 °F 64% 30.03 in 10.0 mi ESE 6.9 mph - N/A   Overcast
11:48 AM 80.6 °F 83.2 °F 68.0 °F 65% 30.03 in 10.0 mi ESE 6.9 mph - N/A   Scattered Clouds
11:53 AM 81.0 °F 83.3 °F 66.9 °F 62% 30.01 in 10.0 mi ESE 5.8 mph - N/A   Scattered Clouds
12:53 PM 84.0 °F 87.8 °F 69.1 °F 61% 30.00 in 10.0 mi Calm Calm - N/A   Clear
1:53 PM 88.0 °F 92.9 °F 70.0 °F 55% 29.99 in 10.0 mi SSW 9.2 mph - N/A   Clear
2:53 PM 88.0 °F 92.1 °F 69.1 °F 53% 29.94 in 10.0 mi South 4.6 mph - N/A   Mostly Cloudy
3:53 PM 89.1 °F 92.1 °F 66.9 °F 48% 29.93 in 10.0 mi SW 8.1 mph - N/A   Scattered Clouds
4:53 PM 78.1 °F - 63.0 °F 60% 29.97 in 10.0 mi Calm Calm - N/A   Mostly Cloudy
5:16 PM 73.0 °F - 66.0 °F 79% 30.06 in 1.2 mi WNW 28.8 mph 39.1 mph 0.13 in Rain Heavy Rain
5:18 PM 72.0 °F - 66.0 °F 81% 30.05 in 0.8 mi NW 23.0 mph 39.1 mph 0.20 in Rain Heavy Rain
5:26 PM 70.0 °F - 66.0 °F 87% 30.01 in 1.2 mi NW 9.2 mph 29.9 mph 0.24 in Rain Rain
5:53 PM 70.0 °F - 64.9 °F 84% 29.96 in 10.0 mi NE 5.8 mph - 0.24 in   Partly Cloudy
6:53 PM 70.0 °F - 66.9 °F 90% 29.92 in 10.0 mi SSE 12.7 mph - 0.00 in   Scattered Clouds
7:53 PM 71.1 °F - 66.0 °F 84% 29.95 in 10.0 mi SSE 3.5 mph - 0.01 in   Clear
8:53 PM 71.1 °F - 66.9 °F 87% 29.98 in 10.0 mi SE 4.6 mph - N/A   Scattered Clouds
9:53 PM 71.1 °F - 66.9 °F 87% 29.99 in 10.0 mi North 3.5 mph - N/A   Scattered Clouds
10:21 PM 71.1 °F - 66.9 °F 87% 30.06 in 3.0 mi NW 13.8 mph - 0.13 in Rain Heavy Rain
10:25 PM 70.0 °F - 66.9 °F 90% 30.06 in 1.8 mi NW 11.5 mph - 0.20 in Rain Heavy Rain
10:32 PM 70.0 °F - 66.9 °F 90% 30.05 in 2.0 mi NNW 8.1 mph - 0.27 in Rain Heavy Rain
10:43 PM 70.0 °F - 66.9 °F 90% 30.02 in 5.0 mi East 5.8 mph - 0.30 in Rain Light Rain
10:53 PM 70.0 °F - 66.9 °F 90% 30.00 in 7.0 mi East 5.8 mph - 0.32 in Rain Rain
11:53 PM 69.1 °F - 66.9 °F 93% 30.01 in 3.0 mi East 3.5 mph - 0.10 in Rain Rain